Location: Aressy
(43.2833°N, 0.3167°W)
Time: 18:40:00
(UTC+00:00)

Cosmos 1812 Rocket - Pass Details

Date: 28 January 2021
Orbit: 604 x 633 km, 82.5° (Epoch: 03 March)

Event Time Altitude Azimuth Distance (km) Brightness Sun altitude
Rises 17:46:26 0° 356° (N) 2,895 6.9 -7.3°
Reaches altitude 10° 17:48:44 10° 2° (N) 1,980 6.0 -7.7°
Maximum altitude 17:53:00 51° 78° (ENE) 773 3.7 -8.5°
Drops below altitude 10° 17:57:13 10° 155° (SSE) 1,952 6.0 -9.2°
Sets 17:59:28 0° 161° (SSE) 2,848 6.9 -9.6°
